Wind_Speed
20 20 18 17 18 18 18 18 16 16 15 15 15 14 12 10 7 4 1 3 4 6 8 10 11 11 12 14 15 16 17 17 18 18 19 18 18 17 17 18 17 17 18 19 20 20 19 20 20 20 20 20 20 19 18 18 19 18 18 18 18 17 18 18 15 18 26 27 26 28 28 27 27 24 25 27 27 27 31 34 34 30 27 26 28
20 20 18 17 17 17 17 17 15 15 16 17 15 12 9 6 3 2 3 6 7 8 10 11 11 11 13 14 15 16 17 17 18 18 18 18 17 17 17 17 18 18 19 20 20 20 19 20 20 20 21 20 19 18 18 19 20 19 18 18 18 17 16 19 19 17 24 29 28 28 28 27 27 26 26 27 27 27 30 34 34 29 25 25 27
20 20 18 16 15 15 16 16 15 16 17 15 12 8 5 3 4 4 6 8 9 10 10 11 11 11 13 14 15 16 17 17 17 17 17 17 17 17 17 18 18 18 19 20 21 20 19 20 20 20 21 20 19 18 18 20 20 19 19 18 18 19 18 18 20 20 23 29 28 28 28 28 28 28 27 27 27 27 28 29 30 28 27 27 29
21 20 18 16 13 12 14 16 15 15 14 11 7 4 4 6 6 7 9 10 10 10 11 10 10 11 13 15 15 16 16 16 17 17 17 17 17 17 17 18 18 18 18 19 19 18 17 17 17 18 20 20 18 18 18 20 21 19 19 19 18 20 20 18 19 21 23 27 29 28 28 29 30 28 27 27 27 26 28 28 27 30 33 31 29
21 19 17 15 12 9 12 15 14 12 9 6 5 6 7 8 9 10 10 10 10 10 10 11 11 12 14 15 15 15 15 16 17 17 17 17 17 17 17 17 17 17 17 17 17 16 16 15 14 15 19 21 19 18 19 20 21 19 19 21 20 20 21 20 21 22 23 26 29 30 29 30 31 29 26 27 27 27 28 28 27 30 32 29 26
21 18 16 14 11 9 11 13 12 9 7 7 8 9 10 11 11 12 11 10 11 11 11 11 12 13 14 15 14 14 15 16 17 17 18 18 18 17 17 17 17 16 16 16 16 16 16 15 13 13 18 22 21 20 21 21 20 20 21 21 21 21 22 22 22 22 22 24 26 29 30 29 30 29 27 26 27 28 30 31 29 27 26 25 26
21 18 16 13 11 11 12 11 8 7 8 10 12 12 13 13 13 13 12 11 11 11 11 12 13 13 13 13 14 14 14 16 17 17 18 18 17 17 17 17 16 16 16 16 16 16 16 15 14 14 17 21 21 21 21 21 21 21 22 22 22 23 23 22 22 21 21 22 22 24 27 27 27 28 28 27 26 27 28 29 28 26 25 25 26
19 17 14 12 12 11 10 8 7 10 12 14 14 15 15 14 14 13 12 12 12 12 12 12 12 12 12 12 13 14 15 16 17 17 18 17 17 17 17 16 16 17 17 17 17 17 17 16 15 15 17 19 20 21 21 22 23 22 22 23 23 24 23 22 22 21 20 21 21 23 25 25 25 27 28 26 24 25 26 27 28 27 27 28 27
15 14 12 12 11 10 9 10 12 14 16 16 16 16 16 15 15 14 12 12 13 12 12 12 12 12 12 12 13 13 15 17 17 16 17 17 17 17 16 16 16 17 18 19 19 19 19 19 17 15 17 19 20 20 20 22 23 23 24 25 25 25 23 22 22 22 22 21 21 23 23 23 24 25 26 24 23 26 27 27 29 28 27 29 29
13 12 12 12 12 12 13 15 16 18 18 17 17 17 16 16 15 14 13 12 12 12 11 11 11 12 12 12 12 14 15 16 15 15 16 16 17 16 15 15 16 17 18 19 20 20 20 20 18 16 17 20 20 19 21 23 22 22 23 24 25 25 24 23 22 23 23 21 21 23 23 23 24 25 26 27 27 26 25 24 26 28 26 24 25
12 13 14 15 16 17 18 19 19 19 18 17 17 17 16 16 15 14 13 12 12 11 10 10 11 11 11 11 12 14 15 14 14 15 15 16 16 15 15 15 16 17 18 20 21 21 21 21 18 17 19 21 20 20 22 23 23 23 22 22 24 25 24 24 24 23 23 22 22 23 22 24 28 28 27 29 28 25 24 23 22 24 22 17 16
14 16 17 19 20 21 21 21 21 19 18 17 17 17 16 16 15 14 13 12 11 10 9 10 11 11 11 11 12 14 14 13 13 14 15 15 15 14 14 15 16 17 18 19 21 21 21 21 19 19 22 22 20 22 24 23 23 24 23 22 24 25 24 23 24 25 25 24 24 24 23 26 30 31 29 29 28 25 23 22 22 21 19 15 15
18 20 22 23 24 23 23 22 21 19 18 18 17 17 16 16 15 13 13 11 9 9 9 10 10 10 10 11 12 13 13 13 13 14 15 15 15 15 15 16 16 17 18 19 21 21 21 22 21 21 25 24 22 24 25 24 24 25 24 24 26 27 26 25 24 24 26 28 27 27 28 29 31 34 34 33 30 28 24 22 23 22 19 18 20
22 24 26 25 25 24 23 22 21 20 19 18 18 17 16 15 14 12 11 10 9 9 9 9 10 10 11 11 11 12 13 13 13 14 14 15 15 15 16 17 17 18 18 19 21 22 21 22 21 23 26 26 24 25 26 25 25 25 26 27 29 30 29 27 26 25 25 27 28 30 31 32 32 35 36 35 32 28 26 24 22 21 21 22 25
25 27 27 26 25 25 23 22 21 20 20 19 18 17 15 15 14 12 11 10 9 9 9 9 10 10 11 10 11 12 13 13 13 14 14 15 16 17 17 18 18 19 20 20 22 22 22 22 22 23 26 26 24 26 27 26 24 24 25 29 32 33 31 27 26 27 26 27 29 30 30 32 34 35 35 35 34 30 24 24 24 23 24 24 23
27 28 28 27 25 24 23 22 22 21 20 19 18 17 15 14 13 12 11 11 10 10 9 9 10 10 10 10 10 11 12 13 13 14 14 15 17 18 19 19 20 21 21 21 22 23 23 22 21 23 26 25 25 27 28 26 24 23 24 28 31 33 34 31 29 29 29 28 29 29 29 31 34 34 34 35 37 34 25 19 21 20 19 16 15
28 28 28 27 25 23 22 21 22 21 20 19 18 16 15 14 12 11 11 11 10 9 9 9 9 9 9 10 10 11 11 12 13 14 15 16 18 19 20 20 21 21 21 22 23 23 23 22 21 22 25 26 26 28 28 26 25 24 24 26 27 30 34 35 33 32 31 29 28 28 28 32 36 36 36 39 40 36 27 16 15 15 11 10 10
28 28 28 26 24 22 21 20 21 21 20 18 17 16 14 13 12 11 10 11 10 9 8 8 8 8 8 9 10 10 11 11 12 14 15 17 18 19 20 21 21 22 22 22 22 22 24 23 21 22 25 26 27 28 28 26 25 25 26 26 25 27 31 32 30 31 32 30 28 28 30 34 39 38 37 42 44 38 29 20 14 12 11 9 9
29 28 27 25 23 21 20 19 20 20 19 17 16 15 15 14 13 12 11 10 10 9 8 7 7 7 7 7 8 10 11 11 12 13 15 16 17 18 20 21 22 22 22 22 21 22 24 24 23 23 25 26 27 27 27 26 25 24 26 27 26 26 29 29 28 29 31 29 29 30 33 38 42 40 39 43 47 42 33 28 21 11 14 12 10
28 27 25 23 22 20 19 19 19 19 18 18 16 15 15 15 15 14 12 11 10 9 7 6 7 7 7 7 8 10 11 11 12 14 15 16 17 18 19 21 21 21 20 20 21 22 24 25 25 25 26 26 26 27 26 26 25 24 25 26 26 27 28 27 27 31 32 29 29 31 34 40 43 41 40 42 47 47 40 36 30 12 13 12 9
27 25 23 22 21 20 19 18 18 18 18 18 17 16 15 15 16 15 13 11 10 8 7 6 7 7 8 8 9 10 11 11 13 15 16 18 18 17 19 20 20 20 19 19 20 22 24 25 25 25 26 26 26 26 26 26 25 25 26 26 26 28 28 25 28 35 34 28 27 29 32 40 45 43 41 41 45 48 44 41 38 21 6 13 11
26 24 23 22 21 21 20 19 19 19 19 18 17 17 16 15 15 14 13 11 9 9 7 7 7 8 8 8 9 10 11 11 13 15 17 18 18 18 18 18 19 19 19 19 20 20 22 24 24 24 25 26 26 26 26 27 27 27 27 28 29 31 32 30 33 38 34 27 26 27 29 35 40 42 43 42 42 45 45 41 39 31 15 5 6
24 23 23 23 22 22 21 21 20 20 19 18 17 18 18 16 15 13 12 10 9 9 8 8 8 8 8 8 9 9 10 12 13 15 17 18 19 19 18 18 19 19 18 18 19 20 21 22 22 23 25 26 26 27 27 28 29 29 29 30 32 34 35 36 38 38 31 25 25 26 26 30 33 38 43 42 39 40 42 40 38 36 28 21 18
24 24 23 24 24 23 22 21 20 20 19 18 18 18 18 17 15 13 11 10 9 9 9 9 9 8 8 8 8 9 10 12 13 14 16 18 19 20 19 19 20 19 17 17 18 19 20 21 22 24 25 26 27 28 28 28 29 30 30 31 33 34 35 36 38 35 28 24 25 26 27 28 29 32 39 39 35 35 39 38 37 37 32 27 27
25 25 25 25 25 24 23 22 20 19 19 18 18 18 18 17 16 14 12 10 10 10 11 10 9 9 8 8 8 9 10 11 12 14 16 18 20 21 20 19 20 19 17 16 16 17 18 20 22 25 26 27 28 30 31 30 30 31 31 31 33 35 35 34 33 30 26 23 24 26 28 28 27 29 34 38 36 35 38 38 37 38 37 32 29
26 26 26 26 26 25 24 23 21 20 19 18 16 15 16 16 16 15 13 10 10 10 11 11 9 8 8 7 7 8 9 11 12 14 16 18 20 20 20 19 20 19 17 16 16 16 18 21 23 26 27 28 29 31 32 32 32 32 32 33 33 33 32 29 27 27 26 24 23 25 27 27 27 27 33 39 38 35 36 36 37 38 37 33 29
27 27 27 27 27 26 25 25 23 22 20 19 17 15 15 15 16 15 14 12 11 11 11 10 9 8 7 6 6 7 8 10 12 14 16 18 19 19 19 20 19 19 18 17 18 18 19 22 23 26 28 29 30 31 32 33 34 34 34 35 33 31 28 26 26 28 27 22 20 23 27 29 30 29 31 35 37 36 33 31 32 34 34 30 28
27 27 28 28 28 27 26 26 25 23 21 19 17 17 16 16 15 14 12 10 10 10 11 10 9 7 6 5 5 5 7 9 11 14 15 17 18 18 18 18 18 18 17 17 18 19 20 22 25 28 31 32 34 35 36 35 36 36 35 35 35 33 32 31 32 33 29 21 18 22 27 29 29 29 28 28 32 36 34 29 28 29 29 28 26
27 27 28 28 28 28 27 26 25 24 22 20 18 16 16 15 14 12 10 8 7 7 8 9 8 6 5 4 4 4 5 7 9 11 12 14 16 16 15 15 15 15 14 15 18 20 21 23 26 28 30 33 34 36 36 37 38 37 37 36 35 35 36 34 34 36 32 23 19 22 25 25 25 26 26 26 28 31 30 28 27 27 26 25 23
27 27 29 29 29 29 28 27 26 24 22 22 20 18 16 14 13 11 10 10 8 6 6 6 6 5 5 4 2 2 3 4 6 8 10 13 14 13 12 12 13 14 13 15 18 21 22 23 24 25 28 29 29 30 31 33 34 35 37 37 35 35 35 33 32 34 30 23 20 21 22 22 23 24 25 25 26 28 27 26 25 24 24 23 22
28 28 29 30 30 30 29 28 27 25 23 23 22 21 20 17 14 12 11 10 9 8 7 6 5 4 4 2 1 1 1 3 5 7 10 12 13 12 11 11 13 13 14 15 19 21 21 20 21 24 26 27 27 28 29 29 30 31 34 35 35 34 33 32 32 32 26 21 21 21 20 20 21 22 23 24 26 27 27 27 26 23 22 21 20
28 29 30 30 30 30 30 29 28 26 25 24 23 22 22 20 18 15 13 12 11 9 8 6 5 4 3 2 1 1 1 1 4 7 9 11 12 11 11 11 13 13 14 15 18 19 20 19 20 23 24 25 27 29 29 29 29 30 30 30 31 33 31 30 32 28 20 18 21 21 20 21 21 21 21 24 26 26 26 27 27 24 22 21 20
28 28 30 30 31 31 31 30 29 28 27 26 25 24 24 23 21 19 17 14 12 11 9 7 6 5 3 2 2 3 3 2 3 6 8 10 11 11 11 11 12 13 14 15 17 18 19 19 20 21 22 23 26 28 30 30 30 29 28 27 29 32 31 30 31 26 20 20 21 20 19 20 21 21 22 23 24 25 24 25 25 24 23 23 23
27 27 28 30 31 32 32 31 31 30 28 28 27 26 25 24 22 21 20 18 16 14 12 10 8 6 5 3 3 4 4 4 4 6 8 9 11 11 11 11 11 12 13 15 16 17 18 19 19 20 21 22 25 27 29 29 29 29 29 29 30 31 31 31 30 26 22 22 23 21 21 21 20 21 22 23 26 27 26 26 26 24 23 23 23
27 26 27 29 30 32 32 32 31 31 30 29 28 27 26 24 22 21 21 20 19 17 15 12 10 8 6 5 4 5 5 5 5 6 7 9 10 11 11 12 12 12 13 14 15 15 16 17 18 19 19 21 24 26 28 29 29 28 28 29 30 31 31 31 29 25 21 23 25 25 25 24 21 20 20 22 25 25 24 25 26 24 22 21 21
29 27 27 28 29 30 32 32 31 31 30 30 29 27 26 25 23 22 21 20 19 18 16 13 11 10 9 7 6 6 7 7 6 7 7 9 10 11 12 12 12 12 12 13 13 13 15 16 17 17 18 20 23 26 28 28 28 28 28 28 29 30 29 28 28 26 24 24 26 27 27 26 25 24 23 23 24 23 22 23 24 23 23 23 22
30 29 28 29 29 30 31 31 31 30 30 29 29 28 27 25 24 22 22 21 19 18 17 15 14 12 11 10 8 7 8 8 8 8 8 9 9 11 11 11 10 10 10 11 12 12 14 15 16 16 17 20 22 25 27 28 28 28 28 28 28 29 27 26 26 27 26 25 26 27 28 28 28 27 27 27 28 28 28 28 26 23 25 25 23
31 29 28 28 29 30 31 31 31 30 30 29 29 28 27 26 25 24 23 22 20 19 18 18 17 16 14 11 9 9 9 9 9 9 9 9 9 10 10 10 9 8 8 10 11 11 12 14 15 15 17 19 22 24 27 28 28 28 28 28 29 29 28 27 27 27 26 25 26 27 29 29 29 30 30 29 29 30 31 31 28 25 25 25 22
32 30 28 28 29 31 31 31 31 31 31 30 30 29 28 27 26 26 24 23 22 20 19 19 20 19 16 13 11 11 11 11 11 10 9 9 8 8 8 8 8 7 8 9 10 11 11 13 14 15 16 18 21 24 26 27 28 27 27 28 28 28 28 27 27 27 26 26 27 28 29 30 30 30 31 31 30 30 30 31 31 29 26 24 22
34 32 30 29 29 30 31 31 31 31 31 31 30 30 30 29 27 27 25 24 23 22 20 20 21 20 18 16 14 13 13 12 11 11 10 10 8 7 7 8 8 8 8 9 10 10 11 12 13 14 15 17 20 23 25 26 27 27 27 27 27 27 27 25 25 26 26 26 27 28 29 30 30 31 32 32 32 31 30 30 31 30 27 24 23
35 33 32 30 30 31 31 31 31 31 31 31 31 31 31 30 28 26 25 25 24 23 22 21 20 18 18 18 16 14 13 12 11 11 11 10 8 7 6 8 8 8 8 9 9 9 10 11 12 13 14 16 19 22 24 25 26 25 26 26 26 27 27 26 25 26 26 26 27 28 29 30 30 30 31 32 31 30 29 28 29 28 25 22 22
37 35 33 32 32 32 32 33 33 31 31 31 31 31 31 30 28 27 26 25 24 24 23 22 19 17 17 18 17 15 14 13 12 12 11 10 9 7 7 7 8 8 8 8 9 9 9 10 11 13 13 16 19 21 22 24 25 24 24 25 25 26 27 26 26 26 26 26 27 28 28 29 29 29 30 30 29 29 29 28 28 26 23 22 22
39 37 35 33 34 34 34 34 33 32 32 32 32 31 31 30 29 28 26 25 25 24 24 22 20 17 17 19 18 17 16 15 14 13 12 10 9 8 7 7 8 8 8 8 8 9 8 9 10 12 12 14 17 19 21 22 23 23 23 23 24 25 26 26 26 27 27 27 27 27 28 28 29 29 29 29 28 28 28 27 26 25 24 22 22
40 38 36 35 35 35 35 35 34 34 34 33 32 31 31 30 29 29 27 26 26 25 24 23 20 18 18 20 20 20 19 18 16 14 13 11 10 9 8 7 7 7 7 8 8 8 8 8 9 10 11 13 16 17 19 20 21 21 21 22 23 25 25 25 25 26 26 26 26 27 27 27 28 28 29 27 26 27 27 25 24 24 24 22 21
42 40 39 37 36 36 36 36 35 34 33 32 32 31 31 31 31 30 29 28 27 26 25 23 21 20 20 21 22 22 21 19 18 15 13 12 11 10 9 8 7 7 7 7 8 8 8 8 8 9 11 13 15 16 17 19 20 20 20 21 22 23 23 24 24 25 24 24 25 25 25 26 26 26 26 26 25 24 24 23 22 23 24 23 21
43 42 41 40 39 38 38 37 36 35 34 33 33 33 32 32 32 32 31 30 28 27 26 24 23 22 22 22 23 23 22 20 19 17 14 13 12 11 10 9 7 7 7 7 8 8 8 8 8 9 10 12 14 16 17 18 19 19 19 20 21 22 22 23 23 24 23 23 23 23 23 24 24 24 24 24 24 24 23 21 20 21 22 23 22
45 43 43 42 40 39 39 38 37 36 35 34 34 34 34 34 34 33 32 31 29 28 27 26 25 24 24 24 24 24 23 22 20 18 16 14 13 12 11 10 8 7 7 7 7 8 8 8 8 8 9 11 13 15 16 17 18 19 19 19 20 21 22 22 22 23 23 21 21 20 21 21 22 23 23 23 24 24 22 20 20 20 21 21 22
46 44 43 43 41 40 39 39 38 37 36 36 35 35 34 34 34 34 33 32 31 30 29 28 27 26 26 25 25 25 24 23 21 19 17 16 14 13 12 11 9 8 8 8 8 8 8 8 8 8 9 10 12 14 15 16 17 18 19 19 19 19 20 21 21 21 21 20 18 18 18 18 20 21 21 22 23 22 20 19 19 19 19 20 21
46 45 44 43 42 41 41 40 39 38 38 37 36 35 35 34 35 35 34 34 33 32 31 30 29 28 27 26 25 25 25 24 23 21 19 17 16 14 13 11 10 9 8 8 8 8 8 8 8 8 8 9 11 13 14 15 15 16 18 18 18 18 18 19 19 19 19 19 18 17 16 17 18 19 20 21 21 19 18 18 19 19 18 19 20
46 46 45 45 44 43 42 41 40 39 38 37 36 36 35 35 35 35 35 34 34 33 33 32 31 30 29 28 27 26 26 25 25 23 21 19 17 16 14 13 11 10 9 8 8 8 8 8 8 8 8 9 10 12 13 14 14 15 16 17 17 17 17 17 18 18 18 18 18 17 16 17 17 17 18 20 21 19 18 19 20 19 17 17 18
47 46 45 45 45 43 41 40 39 39 39 38 37 37 36 36 36 36 36 36 36 35 34 33 32 31 31 30 28 27 26 26 25 24 22 20 19 17 15 14 13 11 10 9 9 9 8 8 7 7 7 8 9 11 12 13 13 14 14 15 16 16 16 16 17 18 18 18 18 17 16 16 16 16 17 19 20 20 19 20 20 18 15 15 17
Wind_Direction
266 270 273 273 271 270 271 271 273 278 278 278 279 282 294 312 318 310 337 105 109 101 90 81 71 64 58 52 48 43 38 33 29 25 23 25 25 24 23 22 23 25 23 23 24 25 26 26 23 18 14 9 3 359 355 351 348 345 343 338 334 332 325 317 308 303 305 308 309 309 313 315 313 312 313 311 311 310 305 303 306 309 307 304 303
266 272 276 276 273 272 274 275 278 279 277 274 277 287 301 305 284 228 149 121 111 97 85 78 69 61 55 51 47 41 36 32 29 27 28 29 29 29 28 27 28 29 29 28 28 29 30 28 23 17 10 3 358 354 350 347 344 339 338 336 329 327 325 316 310 305 304 307 311 312 314 315 311 311 313 310 309 310 307 307 308 309 306 305 305
265 271 275 275 273 273 276 277 276 273 272 272 276 289 290 241 205 183 142 123 110 94 84 76 67 59 54 51 46 39 35 33 32 33 34 33 33 34 34 33 34 34 33 32 30 30 30 27 24 17 6 359 354 352 348 345 343 337 332 331 325 321 321 316 310 307 305 306 311 314 316 316 312 311 311 309 308 308 307 308 309 308 307 307 306
263 267 271 272 272 272 275 278 276 271 270 270 267 257 214 182 170 154 135 121 107 94 86 76 67 60 55 51 45 41 39 39 39 39 39 37 37 38 37 37 38 38 37 34 30 28 26 23 21 14 5 1 354 349 348 343 340 336 328 325 322 317 316 313 307 305 304 304 309 312 313 314 312 311 311 309 308 306 306 306 306 307 309 311 310
263 265 266 268 266 258 264 274 278 274 267 251 221 197 179 167 156 144 131 119 107 98 90 79 68 61 56 51 47 46 46 46 45 44 42 41 39 39 39 38 38 37 35 32 28 24 18 13 12 8 3 2 356 348 345 341 336 333 328 324 321 316 313 311 306 302 300 300 305 310 311 312 312 312 311 309 307 306 305 305 305 305 308 312 312
263 265 264 265 256 236 246 264 271 264 240 203 185 177 168 160 148 136 127 119 110 101 89 79 69 62 58 53 51 52 53 51 48 45 42 40 38 36 35 34 33 33 32 29 26 21 15 9 5 1 358 357 354 347 341 339 335 331 329 326 322 318 313 311 309 306 302 298 300 305 309 312 313 313 313 311 307 305 304 304 304 304 305 308 309
261 262 260 254 237 224 236 253 251 225 196 179 171 163 153 146 137 129 123 116 107 97 86 78 70 62 57 55 56 57 56 53 48 43 39 35 33 31 28 27 27 27 27 26 25 21 16 10 4 359 354 351 349 346 340 338 335 331 330 328 324 322 318 315 314 310 305 302 300 300 302 306 308 308 308 308 304 301 302 303 304 304 305 304 305
256 257 250 234 221 220 226 223 202 184 174 165 157 150 143 138 132 127 122 112 102 93 84 77 68 61 57 58 61 60 56 51 44 39 36 32 29 27 24 22 20 20 22 22 22 21 17 12 8 1 353 348 346 345 342 339 336 333 331 329 327 325 322 319 317 312 308 306 302 300 299 300 301 301 302 304 302 299 301 302 299 300 302 301 301
250 244 231 216 207 204 194 182 173 168 162 155 149 144 139 134 131 127 120 110 101 92 84 74 65 61 61 61 63 59 54 48 42 36 32 29 26 23 22 21 20 18 18 17 18 18 15 12 10 1 351 347 347 345 343 341 338 334 332 331 330 328 324 321 318 314 312 309 305 303 300 298 298 297 297 297 293 292 296 298 295 294 297 297 297
235 222 206 192 184 178 172 167 162 158 153 147 143 138 135 132 130 125 117 109 101 93 83 72 64 63 64 63 61 57 51 45 38 33 30 26 22 19 20 22 24 21 18 15 14 13 12 11 9 1 351 349 348 347 345 343 339 335 332 332 331 329 325 321 318 316 314 311 309 307 302 299 297 293 291 290 286 284 284 286 290 291 294 296 294
211 198 184 173 168 165 161 157 154 150 146 142 138 136 135 134 131 124 117 110 103 93 81 71 67 65 66 65 60 55 50 43 35 29 27 24 19 18 21 22 23 23 19 16 12 9 9 9 5 358 353 351 349 348 347 344 339 336 332 331 332 331 327 322 318 316 315 312 310 308 303 301 301 296 290 287 283 279 274 273 277 282 286 290 291
189 178 168 162 160 158 155 153 149 145 142 139 138 139 138 135 130 124 119 112 104 94 79 72 71 69 67 65 61 56 49 39 33 27 23 22 20 20 23 24 22 22 20 17 13 9 8 5 1 356 353 353 350 348 347 344 340 337 333 330 333 336 337 334 324 319 320 318 314 312 310 308 310 310 307 300 290 280 275 272 267 267 271 274 278
173 163 158 157 155 153 152 150 145 142 142 142 142 142 139 135 130 127 122 116 108 96 85 79 76 71 66 62 58 55 47 35 29 26 22 22 24 23 24 24 23 22 20 17 12 9 7 2 357 355 354 355 355 350 347 344 341 340 337 336 337 340 346 348 340 328 325 323 318 316 318 318 318 319 322 320 305 287 278 276 268 261 260 263 267
161 155 153 153 152 151 150 147 143 142 144 144 144 143 140 136 132 129 125 120 112 101 91 85 80 72 64 58 52 49 43 31 24 24 23 24 24 22 22 22 23 23 21 19 13 10 8 2 357 353 354 357 357 351 347 345 343 342 342 341 342 344 347 349 344 335 329 326 321 319 323 327 326 325 327 328 320 300 280 274 272 265 261 264 268
154 153 152 151 150 149 148 146 144 145 146 146 146 144 141 138 136 133 130 124 116 106 96 88 82 74 63 53 46 43 39 29 24 23 24 23 21 19 18 17 20 20 19 19 15 12 10 6 358 354 354 356 355 351 349 347 345 345 345 344 346 348 348 344 338 334 331 329 328 326 327 331 333 333 333 335 335 326 300 276 273 273 269 268 272
152 152 151 150 150 150 149 147 146 146 147 148 147 146 144 143 142 140 136 129 120 111 101 91 82 73 62 50 41 40 37 29 24 23 22 21 18 15 15 15 16 16 16 17 15 14 13 7 358 354 356 355 353 351 350 349 348 348 346 345 347 349 349 347 345 344 340 333 333 335 333 336 341 344 344 342 341 341 329 293 274 274 270 265 269
153 152 151 150 151 152 152 150 148 148 150 150 148 148 149 150 150 149 144 135 127 119 109 99 84 69 60 50 41 41 41 32 25 23 22 19 15 13 13 14 15 14 15 16 14 14 15 8 359 356 356 354 353 352 353 352 352 351 348 346 345 345 347 349 350 349 342 333 336 342 340 342 351 355 353 351 348 347 344 318 280 269 264 261 267
154 153 152 152 153 154 155 153 150 151 152 150 149 151 154 156 157 157 150 139 132 125 115 103 87 70 62 56 46 42 44 40 30 24 21 18 15 14 13 14 15 13 13 14 13 14 15 12 6 360 356 354 355 355 355 355 354 353 351 349 347 344 344 344 343 341 338 335 340 347 347 352 359 359 355 355 354 353 349 339 312 272 251 260 273
156 155 153 154 155 155 155 154 153 152 152 151 150 153 157 159 160 158 152 142 135 131 124 110 92 81 75 68 59 52 48 46 37 27 22 19 17 14 13 15 16 13 11 11 10 12 14 13 11 5 359 358 358 358 358 358 355 354 353 353 351 347 342 340 339 339 339 341 345 347 350 357 1 358 355 356 359 359 356 352 343 290 245 257 270
157 155 154 155 156 156 156 155 155 154 153 152 152 155 158 160 160 158 152 144 138 135 130 115 100 93 84 74 67 61 54 48 41 32 25 23 19 15 16 17 15 11 10 9 8 9 11 12 11 6 3 2 1 360 0 360 357 356 357 357 352 345 341 341 345 349 348 347 349 349 351 357 360 357 354 356 1 3 3 3 1 331 241 243 261
156 155 155 156 156 157 158 158 157 156 154 153 154 156 158 159 159 157 152 147 140 137 133 122 111 103 91 78 72 68 60 50 43 36 29 25 21 17 18 19 14 9 8 8 7 7 8 8 6 4 4 4 2 2 3 3 3 2 360 357 353 352 352 349 351 357 356 351 350 349 350 357 360 357 354 355 359 3 6 10 11 7 270 239 249
157 157 157 158 159 160 160 160 159 157 156 155 154 155 157 159 159 156 152 147 140 136 135 132 124 114 100 87 75 67 60 49 41 35 30 26 23 19 18 18 13 7 6 6 6 6 7 6 2 2 6 7 6 8 10 9 9 8 4 1 3 7 7 3 0 2 0 353 350 349 349 354 355 353 353 354 356 2 7 10 13 17 20 336 280
159 159 160 162 163 163 163 163 162 159 158 158 154 154 157 160 159 157 154 148 143 140 141 142 134 122 108 93 77 64 54 44 36 31 27 24 22 19 16 16 13 8 6 5 4 5 7 4 360 2 9 11 10 13 15 14 12 11 9 8 10 12 12 10 7 4 359 352 350 348 348 351 349 348 351 353 352 358 6 10 12 17 25 29 30
162 163 164 165 165 165 165 165 164 161 159 159 156 154 157 159 157 158 156 151 146 145 146 149 143 128 113 96 79 65 51 39 30 26 22 20 18 15 13 14 13 9 7 6 4 6 8 4 3 8 13 13 12 14 16 15 13 13 13 12 12 14 13 10 7 3 356 352 350 345 346 349 345 343 347 351 353 358 4 8 12 15 19 24 29
166 166 168 168 167 167 167 166 165 163 162 163 160 156 158 160 158 158 158 152 148 147 148 151 146 129 116 99 79 64 49 36 27 21 17 15 13 10 8 10 12 10 10 10 7 9 12 10 12 16 15 12 13 15 16 16 15 14 15 14 14 14 12 8 4 360 354 351 348 342 340 343 341 341 350 358 2 3 5 7 9 14 17 19 21
169 169 170 170 170 170 168 166 165 166 165 167 165 161 162 163 160 158 157 152 148 147 149 151 146 132 117 99 78 59 44 33 24 18 15 11 8 5 4 7 9 10 13 14 11 12 16 15 16 18 16 14 14 15 15 16 17 16 16 15 15 13 9 3 359 357 353 348 346 344 343 343 341 346 360 8 8 4 3 4 6 9 13 14 13
171 172 172 172 172 172 171 167 167 168 168 169 167 165 167 168 164 161 160 156 152 152 154 156 152 140 123 100 75 54 38 29 21 16 13 8 4 2 2 5 6 7 11 14 14 16 18 17 17 17 17 18 19 17 16 16 16 15 14 14 14 11 7 3 360 0 357 347 340 344 350 353 352 353 0 6 6 4 1 359 1 5 6 7 11
175 175 175 175 175 175 173 171 170 170 170 171 170 169 171 173 171 167 164 160 156 155 157 159 155 145 125 101 75 51 33 23 18 14 9 3 1 0 1 3 5 8 10 12 15 18 19 18 18 18 17 17 17 16 15 15 14 13 12 12 12 11 10 8 6 4 0 349 341 346 350 353 355 355 354 356 0 4 2 356 357 1 2 6 11
177 177 177 177 176 176 176 175 173 171 171 173 174 174 176 177 175 169 165 161 155 152 154 153 149 142 125 105 84 57 37 23 17 12 4 0 360 359 360 2 6 10 13 13 16 20 20 19 18 17 15 14 12 11 10 9 9 10 10 10 10 10 9 7 4 2 360 354 350 351 350 350 351 352 353 353 355 359 360 356 356 358 1 6 10
178 178 179 178 178 178 178 178 177 176 175 175 174 175 176 179 180 178 173 168 162 158 154 147 141 137 128 112 96 69 38 23 14 7 1 360 360 358 358 2 7 12 15 16 20 23 22 19 17 16 14 11 9 6 4 3 3 2 4 6 8 7 6 4 1 1 359 357 356 353 350 350 350 350 352 352 351 353 356 355 355 356 359 2 3
179 180 182 182 182 182 181 180 180 181 181 180 178 177 176 179 184 186 182 177 173 170 166 160 149 141 136 128 120 100 22 10 4 1 359 359 360 0 359 0 8 15 14 16 24 27 24 19 16 15 14 11 7 3 1 0 359 357 359 2 4 5 3 0 359 359 356 356 359 356 351 352 352 350 350 350 348 349 353 355 356 357 358 358 356
184 185 186 186 186 186 185 184 184 184 184 184 185 184 181 180 181 184 185 186 185 181 179 178 173 167 169 179 204 229 265 325 343 352 357 357 359 4 3 360 7 15 15 18 27 30 25 20 16 14 12 9 6 3 1 360 358 358 357 357 358 0 0 359 360 360 354 353 357 355 351 352 351 348 348 348 347 347 349 351 352 351 352 353 353
190 189 189 189 188 188 188 188 188 188 188 189 190 191 189 186 184 185 188 190 192 192 192 192 190 190 199 219 232 235 245 273 318 340 350 354 358 6 6 1 5 13 16 21 27 28 24 20 17 13 11 7 5 3 2 1 359 358 357 355 355 357 359 1 4 4 1 1 1 355 350 350 349 347 348 348 348 347 347 347 348 348 349 350 349
197 195 194 192 192 191 192 193 193 194 195 196 197 197 198 198 195 192 189 189 193 197 199 197 197 199 209 227 237 237 241 258 295 327 341 348 356 5 6 4 8 15 19 24 27 24 20 17 15 12 9 7 4 2 2 2 0 359 358 357 357 359 1 4 6 6 6 7 5 358 354 353 350 348 348 347 349 349 347 347 348 346 346 346 343
200 200 198 198 197 196 197 198 199 199 200 201 203 204 204 204 204 202 199 198 199 202 202 199 197 201 210 225 238 240 242 255 281 312 331 341 353 2 3 4 9 13 17 22 24 21 17 14 12 10 8 6 4 2 2 2 1 359 358 357 358 0 2 4 6 7 6 6 5 2 359 356 353 350 347 344 347 347 343 343 344 342 341 342 341
201 200 199 200 201 201 201 202 203 204 205 207 208 209 208 207 208 209 209 210 210 209 207 202 197 201 211 222 232 238 240 251 273 300 318 331 345 356 1 5 7 8 11 16 17 16 15 12 9 9 9 6 3 2 2 2 1 0 359 359 359 0 1 2 7 10 9 6 5 3 0 357 355 354 351 347 346 344 341 342 342 339 339 340 340
203 202 201 202 203 204 205 206 207 209 211 211 211 211 210 211 213 213 213 213 214 215 214 207 201 205 213 219 223 229 235 246 266 288 305 319 336 350 358 4 4 1 4 9 9 8 10 9 8 8 7 5 3 2 2 3 2 1 2 2 2 2 2 5 9 12 9 6 4 2 0 359 358 356 353 351 350 350 350 348 344 339 339 340 341
206 206 205 205 205 205 206 207 208 210 211 212 212 212 212 213 214 214 215 215 215 217 216 211 208 210 215 219 222 224 229 241 258 276 292 305 323 342 354 360 358 354 356 2 2 2 4 5 5 6 6 4 3 2 2 3 3 2 3 4 3 3 5 10 12 12 8 5 2 2 1 0 359 358 356 353 351 351 351 349 345 340 338 340 344
207 208 208 207 206 206 207 207 208 209 210 212 212 212 213 214 214 215 216 217 216 218 218 215 215 217 218 218 219 220 225 237 252 268 280 291 308 331 347 352 350 347 350 355 356 356 359 2 3 4 5 4 3 2 2 2 2 3 4 4 3 3 5 9 10 10 8 4 1 1 1 360 359 360 358 355 352 351 350 350 349 347 342 339 342
206 207 208 207 207 208 209 209 209 210 211 212 213 213 213 215 215 216 217 218 218 219 219 219 222 223 220 218 221 224 229 238 250 262 270 278 292 316 336 342 341 341 345 350 351 350 352 357 360 1 3 4 3 2 2 2 2 3 4 3 3 3 5 8 8 6 5 3 1 0 360 360 360 0 0 359 356 354 351 351 352 351 345 339 341
206 206 206 206 207 209 209 209 212 213 213 214 215 214 214 216 218 219 220 220 221 222 221 223 228 229 223 221 226 231 234 239 249 257 263 269 279 296 319 333 336 337 339 342 345 345 346 351 354 357 1 4 3 2 2 1 1 2 3 3 2 3 5 7 8 5 3 3 2 360 359 360 0 359 359 360 358 355 353 353 353 350 344 340 344
205 205 205 204 205 208 209 211 213 214 214 215 216 217 217 218 219 220 222 223 224 225 224 226 230 229 223 222 227 231 233 237 245 252 258 263 270 282 304 323 329 332 335 335 336 339 342 344 347 352 358 3 3 1 0 0 1 2 2 2 2 3 5 6 6 4 2 2 1 359 358 359 360 360 0 1 359 356 355 354 353 350 344 342 347
205 206 206 204 205 207 211 213 213 213 214 216 217 218 219 220 220 221 224 225 226 226 227 228 230 227 222 221 224 227 230 234 240 247 254 259 264 274 293 312 321 326 329 327 327 332 336 337 341 348 356 2 3 1 359 359 0 1 2 1 2 4 6 6 4 2 360 359 359 358 357 358 0 2 3 1 358 356 356 355 352 351 348 346 350
205 206 206 206 206 208 211 213 214 215 216 217 218 219 220 220 221 222 224 226 227 227 227 229 230 227 222 219 221 225 229 233 238 243 251 256 262 269 281 298 312 317 320 320 319 322 327 331 336 345 354 359 1 0 358 359 1 1 1 2 3 5 5 4 2 1 359 356 356 356 357 359 1 3 3 0 357 357 358 356 351 351 351 350 353
204 205 205 205 206 207 210 212 214 216 216 216 217 218 219 220 221 221 223 225 226 227 227 228 228 227 224 221 222 226 231 234 237 242 248 255 260 265 271 285 300 307 309 312 311 312 319 327 332 342 352 357 359 359 357 359 1 3 3 4 4 5 5 4 2 2 0 357 354 354 355 359 2 2 1 360 359 358 358 356 353 353 353 351 352
203 205 206 206 206 207 209 211 213 214 215 215 215 216 217 219 220 222 224 225 225 226 226 226 226 226 225 224 226 230 232 234 237 240 246 252 257 260 264 275 289 297 300 304 305 306 313 321 327 339 351 356 356 357 357 358 1 3 4 5 5 5 5 4 3 2 1 358 355 354 355 359 3 3 2 3 4 4 2 358 356 357 356 353 351
203 204 206 207 207 207 209 210 211 212 214 215 216 216 217 219 220 221 223 225 225 226 226 226 226 226 227 227 229 232 234 235 237 240 245 250 253 254 258 266 278 286 291 295 298 302 308 314 321 335 349 353 354 354 354 356 359 3 5 6 6 4 4 3 2 2 1 359 356 354 354 358 2 4 6 8 9 8 5 1 357 358 360 357 354
203 204 206 208 208 207 208 209 210 211 213 214 216 217 218 219 220 221 222 224 224 225 226 226 226 227 228 228 231 234 235 236 237 239 242 245 248 249 253 260 268 276 281 286 290 295 302 307 314 327 343 351 352 353 353 353 357 1 4 6 5 4 3 3 2 0 360 358 356 355 356 358 1 4 8 12 13 9 4 360 358 360 2 1 360
203 204 205 207 208 208 208 209 209 211 213 214 215 216 217 218 220 222 222 223 224 225 226 227 227 227 228 229 231 234 234 234 235 236 238 241 244 246 249 254 260 265 271 277 282 287 294 300 308 319 336 347 350 351 351 352 355 359 3 4 3 3 3 3 1 0 360 358 356 357 359 1 2 3 9 15 16 10 3 1 1 2 4 5 5
204 205 206 207 208 209 210 210 211 212 214 214 214 215 216 217 219 221 222 222 223 225 226 227 227 228 229 230 231 233 233 233 234 235 237 239 241 242 245 249 254 258 263 267 273 280 287 293 300 310 326 340 347 350 350 351 353 358 2 2 1 2 3 2 1 2 1 359 357 360 1 2 4 6 11 18 19 14 8 7 7 4 4 8 9
205 205 206 208 210 210 210 210 211 212 213 214 214 215 216 217 219 221 221 222 223 225 226 227 228 229 230 231 232 233 234 235 235 235 236 238 239 239 242 246 249 252 255 259 265 272 279 286 292 302 316 330 341 347 350 350 352 356 1 1 360 0 2 2 2 4 3 0 360 2 3 3 6 9 14 22 24 19 13 13 12 9 7 9 9
Height
839 839 840 841 841 841 842 843 843 844 845 845 845 845 845 845 844 844 844 843 843 842 842 842 842 842 841 841 840 840 839 838 838 837 836 835 834 833 833 831 830 829 828 826 825 824 822 821 819 818 816 814 812 811 809 807 805 803 802 800 798 797 794 792 787 777 768 768 767 763 761 760 756 755 753 749 747 745 742 740 739 738 737 735 732
837 838 839 840 840 841 841 842 843 843 844 844 844 844 844 844 844 844 843 843 843 843 843 843 843 842 842 841 841 841 840 840 839 838 837 836 835 834 833 832 831 830 828 827 826 824 823 821 820 818 816 815 813 811 809 807 805 803 802 800 798 796 795 791 787 781 771 766 766 763 760 759 755 752 752 748 745 744 740 737 735 734 734 732 729
836 837 838 839 839 840 840 841 842 842 842 843 843 844 844 844 844 844 843 843 843 843 843 843 843 843 843 842 842 842 841 841 840 839 838 837 837 835 834 833 832 830 829 828 827 825 823 822 820 819 817 815 813 812 810 808 806 804 802 800 798 795 794 792 787 783 775 767 765 764 760 757 754 751 749 747 744 742 739 736 734 731 730 729 727
835 835 837 837 838 840 840 840 841 841 841 842 842 843 843 843 844 844 844 844 844 844 844 844 844 844 844 843 843 843 842 842 841 840 840 839 838 836 835 834 833 831 830 829 828 826 825 823 821 820 818 816 814 812 810 808 806 804 802 800 798 794 792 790 787 784 778 770 765 764 761 757 753 751 748 745 742 741 738 735 732 729 726 725 723
834 834 835 836 837 839 839 839 840 840 841 841 841 842 842 843 844 844 844 844 844 844 844 844 845 845 844 844 844 844 844 843 842 842 841 840 838 837 836 835 834 832 831 830 829 827 825 824 822 821 819 817 815 812 810 809 806 804 802 799 796 793 790 788 785 782 779 772 765 762 761 757 752 749 748 744 740 738 736 733 731 727 723 722 721
833 833 834 835 836 838 838 838 839 840 840 840 841 841 842 843 843 844 844 844 844 845 845 845 846 846 845 845 845 845 845 844 843 843 842 840 839 838 837 836 834 833 832 830 829 827 826 824 822 821 819 817 815 813 811 809 806 803 801 798 795 792 788 785 783 780 777 773 767 761 758 756 752 748 746 745 741 737 733 730 727 725 722 720 717
831 832 833 834 835 836 837 838 838 839 840 840 840 841 842 843 844 845 846 846 846 846 846 846 847 847 846 846 846 846 846 845 844 843 842 841 840 839 837 836 835 833 832 830 829 827 825 824 822 820 819 817 815 813 810 808 805 803 800 797 793 790 787 783 781 778 774 771 767 762 757 754 751 747 744 743 740 737 734 730 725 723 721 718 715
829 830 832 833 834 835 836 837 838 838 839 840 841 842 843 844 845 846 847 847 847 847 848 848 848 848 848 847 847 847 846 846 845 844 843 842 841 839 838 836 835 833 832 830 828 827 825 824 822 820 819 818 815 813 811 808 804 801 799 796 792 788 785 782 778 775 772 769 765 761 756 752 749 745 741 739 737 734 732 731 726 722 719 716 713
828 829 830 832 833 834 835 837 837 838 839 840 841 842 843 845 845 846 847 847 848 849 849 849 849 849 849 848 848 848 847 846 846 845 844 843 841 840 838 837 835 833 831 830 828 826 825 823 822 820 819 817 815 813 810 808 804 801 797 794 791 787 784 781 777 773 770 767 763 759 754 750 746 742 738 736 734 730 729 728 725 722 719 715 711
826 828 829 831 832 833 834 836 837 838 840 841 842 843 844 846 847 847 848 848 849 850 850 850 850 850 849 849 849 848 847 847 847 846 844 843 842 840 838 837 835 833 831 829 827 826 825 823 821 820 819 816 814 812 809 807 804 801 798 794 790 787 783 779 776 772 768 765 761 757 752 747 744 740 735 732 730 726 724 724 722 719 718 714 709
825 827 828 830 831 832 834 836 837 839 840 842 843 844 845 847 847 848 849 849 850 851 851 851 851 851 850 850 850 849 848 848 847 846 845 843 842 840 838 837 835 833 831 829 828 826 824 822 821 819 817 815 813 810 808 805 803 800 797 794 791 787 783 779 775 771 768 763 760 756 751 745 741 737 733 728 725 722 720 719 718 716 715 713 708
824 826 827 829 830 832 833 836 838 840 841 843 844 845 846 847 848 849 850 851 851 852 852 852 852 852 851 851 850 849 849 848 847 846 845 843 842 840 838 837 834 833 831 829 828 826 823 822 820 818 817 814 812 809 806 804 801 798 795 792 789 786 783 779 774 770 766 762 758 754 750 745 739 734 731 726 721 719 716 714 714 713 711 711 707
823 825 827 828 830 831 833 836 838 840 842 843 845 846 847 848 849 850 850 851 852 852 853 853 853 853 852 852 851 850 849 849 847 846 845 843 842 840 838 836 834 833 831 829 827 825 823 821 819 818 816 813 811 808 805 802 799 796 793 790 786 783 780 777 774 770 766 761 756 752 749 744 738 733 729 724 719 715 712 711 709 708 707 706 704
823 825 827 829 830 832 834 837 839 841 843 844 845 847 848 848 850 850 851 852 852 853 853 854 853 853 853 852 851 850 849 849 847 846 844 843 841 840 838 836 834 833 831 829 827 825 823 821 819 817 815 812 810 808 805 802 798 794 791 787 784 780 777 774 772 769 766 762 757 752 747 743 738 732 727 722 716 711 708 706 705 704 703 702 701
823 825 827 829 830 832 835 837 839 841 843 845 846 847 848 849 850 851 852 852 853 854 854 854 854 854 853 852 851 850 849 848 847 845 844 843 841 840 838 836 834 832 830 828 827 825 822 821 819 817 814 812 810 807 804 801 797 793 790 786 782 778 775 773 771 767 764 760 756 751 746 742 737 731 724 719 713 708 704 702 701 700 699 698 698
823 825 827 829 831 833 836 838 840 842 843 845 847 848 849 850 850 851 852 853 854 854 854 855 854 854 853 852 851 850 849 848 847 845 844 843 841 840 838 836 834 832 830 828 826 824 822 820 819 817 814 812 809 807 804 800 797 793 789 785 781 777 773 770 768 764 761 758 754 750 745 741 735 729 722 717 711 705 700 698 697 697 696 695 695
823 825 827 830 832 834 836 838 840 842 844 845 847 848 849 850 851 852 852 853 854 854 855 855 854 854 853 852 851 850 849 848 847 845 844 843 841 839 838 836 833 832 830 828 826 824 822 821 819 817 814 812 809 806 802 799 796 792 789 785 781 776 772 768 764 760 758 755 751 747 744 739 732 725 720 715 709 704 699 696 695 695 694 693 692
824 826 828 831 833 835 837 838 840 842 844 846 847 848 849 850 851 852 853 853 854 855 855 855 854 854 853 852 851 850 849 848 847 846 845 843 841 840 838 836 834 831 830 828 826 825 822 821 820 817 815 812 809 805 802 799 795 792 788 784 781 776 772 768 764 760 756 751 748 745 741 735 728 722 718 713 708 703 699 695 693 692 692 691 690
824 826 829 832 834 836 837 839 840 842 844 846 847 848 849 850 851 852 853 854 854 855 855 854 854 854 853 852 852 851 849 848 847 846 845 844 842 840 838 836 834 832 830 828 827 825 823 821 819 818 815 812 809 805 802 799 796 792 789 785 781 777 773 769 765 761 755 749 745 741 736 730 725 721 717 712 707 702 698 695 691 689 689 690 689
825 828 830 832 834 836 838 839 841 843 844 846 847 848 849 850 851 852 853 854 854 854 855 854 854 853 853 852 852 851 850 849 848 847 846 844 842 841 838 836 834 832 831 829 827 825 823 821 819 817 815 812 809 806 803 799 796 793 789 786 782 778 774 769 765 760 754 749 744 740 734 729 725 722 717 712 707 702 698 694 690 687 687 689 689
826 828 830 832 835 837 838 840 842 843 844 846 847 848 849 850 851 852 853 854 854 854 854 854 854 853 853 853 852 851 850 849 848 847 846 844 843 841 839 837 835 833 831 830 828 826 823 821 819 817 815 812 809 806 803 800 797 793 790 788 785 781 775 770 765 760 754 750 746 741 736 731 726 722 718 713 708 704 699 694 691 688 687 687 688
827 829 831 833 835 837 839 841 842 843 845 846 847 848 849 851 851 852 853 853 854 854 854 854 854 853 853 853 852 851 850 850 849 847 846 844 843 841 839 838 836 834 832 830 828 826 824 823 820 818 815 812 810 807 803 800 797 794 791 788 784 780 775 770 765 760 755 751 748 744 739 734 729 725 720 715 710 707 702 698 695 692 690 689 689
827 829 831 833 835 837 839 841 842 843 844 845 846 848 849 850 852 852 853 853 853 854 854 854 854 853 853 853 852 851 850 849 848 847 846 845 843 841 840 838 836 834 832 830 829 827 825 823 821 819 816 813 810 807 804 800 797 794 791 787 783 779 775 770 766 761 757 754 750 746 743 739 734 728 723 718 714 710 706 702 698 695 693 692 691
827 829 831 833 835 837 839 841 842 843 844 845 846 847 849 850 851 852 853 853 853 853 853 853 854 853 853 853 852 851 850 849 848 847 846 845 843 841 840 838 836 835 833 831 829 827 826 824 822 819 816 813 810 807 804 801 798 795 791 787 783 779 775 771 768 764 760 756 752 749 746 743 739 733 728 723 718 714 710 706 702 698 695 693 691
827 829 831 833 835 837 839 841 842 843 844 845 846 847 848 849 851 852 853 853 853 853 853 853 853 853 853 852 852 851 850 849 848 847 846 845 843 841 840 838 837 835 833 832 830 828 826 825 822 819 816 813 810 807 804 801 798 795 792 788 784 780 777 774 771 767 764 760 756 753 749 745 742 737 731 726 720 716 711 707 704 700 697 694 692
827 829 831 833 835 836 838 840 842 843 844 845 846 847 848 849 850 851 852 853 853 853 853 853 853 853 852 852 851 851 850 849 848 847 846 844 843 842 840 838 837 835 834 832 831 828 826 824 822 819 816 814 811 807 804 802 799 795 792 789 786 783 780 777 774 771 767 764 760 756 752 747 744 739 733 727 722 718 714 710 706 702 699 697 694
826 828 830 832 834 836 837 839 841 842 844 845 846 847 848 849 850 850 851 852 852 852 852 852 852 852 852 851 851 850 849 849 848 847 846 844 843 842 840 838 837 836 834 832 830 828 826 825 822 820 817 814 811 808 805 802 799 795 793 790 787 785 783 781 778 774 771 767 763 759 754 749 744 740 735 730 726 722 718 715 711 707 704 701 697
825 827 829 831 833 835 837 838 839 841 843 844 845 846 847 848 849 850 850 851 851 851 851 851 852 851 851 850 850 850 849 848 847 846 846 845 844 842 840 839 837 836 834 833 831 828 827 825 822 819 817 813 810 807 804 802 799 796 794 791 789 786 784 781 778 775 772 769 765 760 755 750 746 742 738 735 731 727 722 720 717 714 710 706 703
825 826 828 830 832 834 836 837 839 840 842 843 845 846 847 848 848 849 850 850 851 851 851 851 851 851 850 850 849 849 849 848 847 847 846 845 844 842 841 839 838 837 835 833 831 829 826 824 822 819 816 814 811 808 805 802 799 797 795 792 789 787 784 781 778 775 772 769 765 761 757 753 750 746 742 738 735 731 728 725 721 718 715 712 710
824 826 827 829 831 833 835 836 838 839 840 842 844 845 847 848 848 849 849 850 850 850 850 850 850 850 849 849 849 848 848 848 847 847 846 845 844 842 841 840 839 837 835 833 831 828 826 825 823 820 818 816 813 811 808 805 802 799 796 793 791 788 785 783 780 777 774 771 768 764 761 757 753 750 746 742 739 735 732 729 726 723 719 716 714
822 824 826 828 829 831 833 835 836 838 839 841 842 844 845 847 848 848 849 849 850 850 850 850 850 849 849 849 848 848 848 847 847 847 846 845 844 842 841 840 839 837 835 833 831 829 827 826 824 822 820 818 816 814 811 808 805 802 799 795 793 790 787 785 782 779 776 773 770 767 764 761 758 754 751 747 743 738 735 732 729 726 723 721 719
820 822 824 826 828 829 831 833 835 836 838 839 841 842 843 845 846 847 848 848 849 849 849 849 849 849 848 848 848 848 847 847 847 846 845 845 844 842 841 840 838 837 835 833 831 830 829 827 825 823 822 820 818 816 813 810 808 805 802 798 795 792 790 787 784 781 779 775 772 769 766 763 760 758 754 751 746 742 738 734 731 728 726 724 721
818 819 822 824 826 828 830 831 833 834 835 837 839 840 841 842 843 845 846 847 848 848 848 848 848 848 848 848 847 847 847 847 846 846 845 844 843 842 841 840 838 837 835 833 832 830 829 828 827 825 824 822 820 818 815 812 809 807 804 801 798 795 792 789 786 783 780 777 774 772 769 766 763 760 756 753 750 746 742 738 734 731 727 724 721
816 817 819 821 823 825 827 828 830 832 833 835 836 837 839 840 841 842 844 845 846 847 847 847 847 847 847 847 847 847 847 846 846 845 845 844 843 842 841 840 838 837 836 834 832 831 830 829 827 826 824 823 821 819 816 813 810 808 805 802 800 796 793 790 786 784 781 779 776 774 771 768 765 762 758 755 752 748 745 741 737 734 731 728 724
814 816 817 819 820 822 824 826 828 829 831 832 834 835 837 838 839 840 841 842 843 844 845 845 846 846 846 846 846 846 846 846 846 845 844 843 843 841 840 839 838 837 835 834 833 831 830 829 828 826 825 823 822 819 817 814 811 809 806 803 800 797 794 790 788 785 783 780 778 775 772 770 767 765 762 758 755 751 748 744 740 737 734 731 728
812 814 815 817 818 820 821 823 825 826 828 830 832 833 835 836 838 838 839 840 841 841 842 844 844 844 845 845 845 845 845 845 845 844 844 843 842 841 840 838 837 837 836 834 833 832 831 830 828 827 825 824 822 820 817 815 812 810 807 805 801 798 795 792 789 786 784 782 779 777 774 771 768 766 763 760 757 754 751 747 743 739 736 733 730
810 811 812 814 816 818 819 821 823 824 826 828 830 832 833 834 835 836 837 838 839 839 841 842 842 843 843 843 844 844 844 844 844 844 843 842 841 840 839 838 837 837 836 834 833 832 831 830 829 827 826 824 822 820 817 815 813 810 808 805 802 800 797 794 791 788 785 783 781 778 775 773 770 767 764 761 758 754 751 748 744 741 737 734 731
807 808 810 811 813 815 817 819 821 823 824 826 828 829 830 832 833 834 835 835 836 837 838 839 840 840 841 841 842 843 843 843 843 843 842 842 841 840 839 838 837 836 835 834 833 832 831 830 829 827 826 824 822 820 817 815 813 810 808 805 803 800 798 795 792 789 787 785 782 780 777 774 771 768 765 762 759 756 752 749 746 742 738 734 732
804 806 808 809 810 812 814 816 818 820 821 823 825 826 828 829 830 831 832 833 834 834 836 836 837 838 839 840 840 841 841 841 841 841 841 841 840 839 838 837 836 836 835 834 833 832 831 830 829 827 826 824 822 820 818 815 813 811 808 806 803 801 798 795 793 790 788 786 783 781 778 776 773 770 767 764 761 758 755 751 748 744 740 737 734
801 804 805 806 808 810 811 813 815 817 818 820 822 823 825 826 827 828 829 830 831 831 832 833 834 835 836 837 838 838 839 839 839 840 840 840 839 838 837 836 836 835 834 833 833 832 831 830 829 827 826 824 822 820 818 815 813 811 808 806 804 801 799 796 794 792 789 787 785 782 779 777 774 771 768 765 762 760 757 753 750 746 743 739 736
798 800 802 804 805 807 809 811 812 813 815 816 818 820 821 822 824 825 826 827 828 828 829 830 831 832 834 835 835 836 837 837 838 838 838 838 838 837 836 835 835 834 833 833 832 831 831 830 829 827 826 824 822 820 818 815 813 811 809 807 804 802 800 797 795 793 790 788 786 783 781 778 776 773 770 767 764 761 758 755 752 748 745 742 738
794 796 798 800 802 803 805 807 808 810 812 813 814 816 818 819 821 822 823 824 825 825 826 827 829 830 832 832 833 834 835 835 836 836 836 836 836 836 835 834 833 833 832 832 831 831 830 829 828 827 826 824 822 820 817 815 813 811 809 807 805 802 800 797 795 793 791 789 787 784 782 779 777 775 772 768 765 762 759 756 753 750 746 743 740
789 792 794 796 798 799 801 803 805 807 808 809 811 813 814 816 818 819 820 821 822 822 823 825 826 828 829 830 831 832 833 833 834 834 834 834 834 834 834 833 832 832 831 831 830 830 830 829 828 827 825 824 822 820 818 816 813 811 809 807 805 803 800 798 796 794 791 789 787 785 783 780 778 775 772 769 767 764 761 758 755 751 748 745 742
785 788 791 792 794 796 798 799 801 803 804 806 808 810 811 813 814 816 817 818 819 819 821 822 823 825 826 827 828 829 830 831 831 832 832 832 833 833 832 832 831 831 830 830 829 829 829 828 827 826 825 823 822 820 818 816 814 811 809 807 805 803 801 798 796 794 792 790 788 785 783 781 778 776 773 771 768 766 763 759 757 753 750 747 744
780 783 786 788 790 792 793 795 797 799 801 803 805 806 808 809 811 812 813 814 815 816 818 819 821 822 823 824 825 826 827 828 829 830 830 830 831 831 831 830 830 829 829 829 828 828 828 827 827 826 825 823 822 820 818 816 814 812 810 808 805 803 801 799 797 795 793 791 789 786 784 782 779 777 775 773 770 768 765 762 759 756 752 749 746
775 778 781 783 785 787 789 791 794 795 797 799 800 802 804 805 806 808 809 810 812 813 815 816 817 819 820 821 822 823 824 826 826 827 828 828 828 829 829 829 828 828 828 827 827 827 827 826 826 825 824 823 821 819 818 816 814 812 810 808 806 804 802 800 798 796 794 792 790 787 785 783 781 778 776 774 772 769 766 764 761 758 755 752 748
770 773 776 778 780 782 784 787 789 791 793 794 796 797 799 800 802 804 805 807 809 810 811 812 814 815 816 817 818 819 821 822 823 824 825 825 826 827 827 827 827 826 826 826 826 826 825 825 824 824 823 822 821 819 817 816 814 812 810 808 806 804 802 800 798 796 795 793 791 789 787 784 782 780 777 775 773 770 767 765 763 760 758 755 751
764 767 771 773 776 778 780 782 784 786 788 789 791 793 795 796 798 800 801 803 805 806 807 809 810 811 812 814 815 816 818 819 820 821 822 823 824 824 824 825 825 825 824 824 824 824 824 824 823 823 822 821 820 819 817 815 814 812 810 808 806 804 803 801 799 797 796 794 792 790 788 786 784 781 779 776 774 772 769 767 764 762 759 757 754
759 762 765 768 771 772 774 776 778 780 782 784 786 788 790 792 794 795 797 799 800 802 803 804 806 807 809 810 811 813 814 816 817 818 819 820 821 822 822 822 823 823 823 823 823 823 823 822 822 821 821 820 819 818 817 815 813 812 810 808 806 805 803 801 800 798 796 794 793 791 789 787 785 783 780 778 776 773 771 769 766 763 761 759 756
754 756 759 762 765 767 768 771 773 775 777 780 782 783 785 787 789 790 792 794 796 797 799 800 801 803 805 806 808 809 811 812 814 815 816 817 818 819 819 820 820 820 821 821 821 821 821 821 820 820 819 819 818 817 816 814 813 811 810 808 806 805 803 802 800 798 796 794 793 791 789 788 786 784 781 779 777 775 773 770 767 765 763 761 758
748 751 753 756 759 761 764 766 768 770 772 774 776 778 780 782 783 785 787 789 790 792 794 795 797 799 801 802 804 806 807 809 810 812 813 814 815 816 816 817 817 818 819 819 819 819 819 819 819 819 818 817 817 816 815 814 812 811 809 808 806 805 803 802 800 798 796 795 793 791 790 788 786 784 782 780 778 776 774 772 769 767 765 763 760